{"data":{"norad_id":56900,"intl_designator":"2023-083AA","name":"STARLINK-6207","alt_names":[],"object_type":"PAYLOAD","status":"ACTIVE","operator":null,"country":"US","launch_date":"2023-06-12","launch_site_code":"AFETR","launch_vehicle":null,"mission":null,"orbit_class":"UNKNOWN","rcs_meters":null,"size_class":null,"mass_kg":null,"dimensions":null,"purposes":["comms"],"wikipedia_slug":null,"has_3d_model":false,"image_url":null,"decayed_at":null,"tle_current":{"epoch":"2026-05-24T15:56:52.385280Z","epoch_age_seconds":100729,"freshness":"FRESH","line1":"1 56900U 23083AA  26144.66449520 -.00000216  00000+0  16988-5 0  9995","line2":"2 56900  43.0061   1.9549 0001542 272.0348  88.0327 15.27575540163382","mean_motion":15.2757554,"eccentricity":0.0001542,"inclination_deg":43.0061,"raan_deg":1.9549,"arg_perigee_deg":272.0348,"mean_anomaly_deg":88.0327,"bstar":1.6988e-6,"rev_number":16338,"period_min":94.267023940433,"perigee_km":482.00445396129,"apogee_km":484.12044787195,"semimajor_km":6861.1994509166,"source":"CELESTRAK","updated_at":"2026-05-25T13:38:18.199648Z"}}}